Ortonville, MN

2:42 PM CDT on June 25, 2018 (GMT -0500)
Ortonville Municipal-Martinson

Weather History for KVVV - December, 2014

Change the Weather History Date:

Wednesday, December 24, 2014

  Actual Average (KAQP) Record (KAQP)
Temperature  
Mean Temperature 28 °F -  
Max Temperature 30 °F 21 °F 46 °F (2011)
Min Temperature 26 °F 6 °F -20 °F (2013)
Degree Days  
Heating Degree Days 37    
Moisture  
Dew Point 26 °F    
Average Humidity 87    
Maximum Humidity 93    
Minimum Humidity 86    
Precipitation  
Precipitation 0.00 in - - ()
Sea Level Pressure  
Sea Level Pressure 29.74 in    
Wind  
Wind Speed 10 mph (West)    
Max Wind Speed 17 mph    
Max Gust Speed 22 mph    
Visibility 10 miles    
Events      
Averages and records for this station are not official NWS values.
T = Trace of Precipitation, MM = Missing Value Source: NWS Daily Summary

Daily Weather History Graph

Daily Weather History Graph

Search for Another Location

Airport or City:

Astronomy

Dec. 24, 2014 Rise Set
Actual Time 8:03 AM CST 4:47 PM CST
Civil Twilight 7:29 AM CST 5:21 PM CST
Nautical Twilight 6:51 AM CST 5:58 PM CST
Astronomical Twilight 6:15 AM CST 6:34 PM CST
Moon 9:47 AM CST (12/24) 8:21 PM CST (12/24)
Length of Visible Light 9h 52m
Length of Day
8h 44m
Waxing Crescent, 10% of the Moon is Illuminated
Dec 24
Waxing Crescent
Dec 28
First Quarter
Jan 4
Full
Jan 13
Last Quarter
Jan 20
New

Hourly Weather History & Observations

Time (CST) Temp. Windchill Dew Point Humidity Pressure Visibility Wind Dir Wind Speed Gust Speed Precip Events Conditions
12:14 AM 30.2 °F 19.8 °F 26.6 °F 86% 29.96 in 10.0 mi NNW 13.8 mph 21.9 mph N/A   Overcast
12:33 AM 30.2 °F 18.5 °F 26.6 °F 86% 29.95 in 10.0 mi NNW 17.3 mph 21.9 mph N/A   Overcast
12:54 AM 30.2 °F 20.2 °F 28.4 °F 93% 29.95 in 10.0 mi NNW 12.7 mph 19.6 mph N/A   Overcast
1:14 AM 30.2 °F 19.8 °F 26.6 °F 86% 29.94 in 10.0 mi NNW 13.8 mph - N/A   Overcast
1:33 AM 30.2 °F 21.3 °F 26.6 °F 86% 29.93 in 10.0 mi NNW 10.4 mph 19.6 mph N/A   Overcast
1:54 AM 30.2 °F 21.3 °F 26.6 °F 86% 29.93 in 10.0 mi NNW 10.4 mph - N/A   Overcast
2:14 AM 30.2 °F 20.2 °F 26.6 °F 86% 29.93 in 10.0 mi NNW 12.7 mph - N/A   Overcast
2:34 AM 30.2 °F 19.8 °F 26.6 °F 86% 29.94 in 10.0 mi NW 13.8 mph - N/A   Overcast
2:54 AM 30.2 °F 19.3 °F 26.6 °F 86% 29.93 in 10.0 mi NNW 15.0 mph - N/A   Overcast
3:13 AM 30.2 °F 20.8 °F 26.6 °F 86% 29.92 in 10.0 mi NNW 11.5 mph 17.3 mph N/A   Overcast
3:34 AM 30.2 °F 20.8 °F 26.6 °F 86% 29.91 in 10.0 mi NNW 11.5 mph 16.1 mph N/A   Overcast
3:54 AM 30.2 °F 20.8 °F 26.6 °F 86% 29.91 in 10.0 mi NNW 11.5 mph - N/A   Overcast
4:14 AM 30.2 °F 21.9 °F 26.6 °F 86% 29.89 in 10.0 mi NNW 9.2 mph - N/A   Overcast
4:34 AM 30.2 °F 22.6 °F 26.6 °F 86% 29.88 in 10.0 mi NW 8.1 mph - N/A   Overcast
4:54 AM 30.2 °F 21.9 °F 26.6 °F 86% 29.88 in 10.0 mi NW 9.2 mph - N/A   Overcast
5:14 AM 30.2 °F 21.3 °F 26.6 °F 86% 29.88 in 10.0 mi NW 10.4 mph - N/A   Overcast
5:34 AM 30.2 °F 21.3 °F 26.6 °F 86% 29.88 in 10.0 mi NNW 10.4 mph - N/A   Overcast
5:54 AM 30.2 °F 21.3 °F 26.6 °F 86% 29.88 in 10.0 mi WNW 10.4 mph - N/A   Overcast
6:14 AM 28.4 °F 19.7 °F 26.6 °F 93% 29.87 in 10.0 mi NW 9.2 mph - N/A   Overcast
6:34 AM 28.4 °F 18.5 °F 26.6 °F 93% 29.86 in 10.0 mi NNW 11.5 mph - N/A   Overcast
6:54 AM 28.4 °F 19.1 °F 26.6 °F 93% 29.86 in 10.0 mi NW 10.4 mph - N/A   Overcast
7:14 AM 28.4 °F 19.1 °F 26.6 °F 93% 29.86 in 10.0 mi NNW 10.4 mph - N/A   Overcast
7:34 AM 28.4 °F 19.7 °F 26.6 °F 93% 29.85 in 10.0 mi NW 9.2 mph - N/A   Overcast
7:54 AM 28.4 °F 18.5 °F 26.6 °F 93% 29.85 in 10.0 mi NNW 11.5 mph - N/A   Overcast
8:13 AM 28.4 °F 20.4 °F 26.6 °F 93% 29.86 in 10.0 mi NW 8.1 mph - N/A   Overcast
8:34 AM 28.4 °F 18.5 °F 26.6 °F 93% 29.85 in 10.0 mi NW 11.5 mph - N/A   Overcast
8:54 AM 28.4 °F 19.7 °F 26.6 °F 93% 29.85 in 10.0 mi NW 9.2 mph - N/A   Overcast
9:13 AM 28.4 °F 18.5 °F 24.8 °F 86% 29.85 in 10.0 mi NW 11.5 mph - N/A   Overcast
9:34 AM 28.4 °F 19.1 °F 24.8 °F 86% 29.84 in 10.0 mi NW 10.4 mph - N/A   Overcast
9:54 AM 28.4 °F 21.2 °F 24.8 °F 86% 29.82 in 10.0 mi WNW 6.9 mph - N/A   Overcast
10:13 AM 28.4 °F 20.4 °F 24.8 °F 86% 29.82 in 10.0 mi NW 8.1 mph - N/A   Overcast
10:34 AM 28.4 °F 20.4 °F 24.8 °F 86% 29.80 in 10.0 mi NW 8.1 mph - N/A   Overcast
10:54 AM 28.4 °F 19.7 °F 24.8 °F 86% 29.79 in 10.0 mi West 9.2 mph - N/A   Overcast
11:14 AM 28.4 °F 20.4 °F 24.8 °F 86% 29.78 in 10.0 mi WNW 8.1 mph - N/A   Overcast
11:34 AM 28.4 °F 20.4 °F 24.8 °F 86% 29.77 in 10.0 mi WNW 8.1 mph - N/A   Overcast
11:53 AM 28.4 °F 20.4 °F 24.8 °F 86% 29.76 in 10.0 mi WNW 8.1 mph - N/A   Overcast
12:14 PM 28.4 °F 21.2 °F 24.8 °F 86% 29.74 in 10.0 mi West 6.9 mph - N/A   Overcast
12:34 PM 28.4 °F 20.4 °F 24.8 °F 86% 29.73 in 10.0 mi West 8.1 mph - N/A   Overcast
12:53 PM 28.4 °F 20.4 °F 24.8 °F 86% 29.71 in 10.0 mi WSW 8.1 mph - N/A   Overcast
1:14 PM 28.4 °F 22.2 °F 24.8 °F 86% 29.71 in 10.0 mi WSW 5.8 mph - N/A   Overcast
1:34 PM 28.4 °F 21.2 °F 24.8 °F 86% 29.70 in 10.0 mi West 6.9 mph - N/A   Overcast
1:54 PM 26.6 °F 20.0 °F 24.8 °F 93% 29.69 in 10.0 mi West 5.8 mph - N/A   Overcast
2:14 PM 26.6 °F 20.0 °F 24.8 °F 93% 29.67 in 10.0 mi West 5.8 mph - N/A   Overcast
2:33 PM 26.6 °F 20.0 °F 24.8 °F 93% 29.66 in 10.0 mi WSW 5.8 mph - N/A   Overcast
2:54 PM 28.4 °F 21.2 °F 24.8 °F 86% 29.66 in 10.0 mi SW 6.9 mph - N/A   Overcast
3:13 PM 28.4 °F 22.2 °F 24.8 °F 86% 29.66 in 10.0 mi WSW 5.8 mph - N/A   Overcast
3:34 PM 28.4 °F 22.2 °F 24.8 °F 86% 29.64 in 10.0 mi SW 5.8 mph - N/A   Overcast
3:54 PM 28.4 °F 24.6 °F 24.8 °F 86% 29.63 in 10.0 mi SSW 3.5 mph - N/A   Overcast
4:13 PM 28.4 °F 24.6 °F 24.8 °F 86% 29.62 in 10.0 mi SSW 3.5 mph - N/A   Mostly Cloudy
4:34 PM 28.4 °F 23.3 °F 24.8 °F 86% 29.62 in 10.0 mi SSW 4.6 mph - N/A   Overcast
4:54 PM 28.4 °F 22.2 °F 24.8 °F 86% 29.61 in 10.0 mi SW 5.8 mph - N/A   Overcast
5:13 PM 28.4 °F 23.3 °F 24.8 °F 86% 29.61 in 10.0 mi SSW 4.6 mph - N/A   Overcast
5:34 PM 28.4 °F 23.3 °F 24.8 °F 86% 29.60 in 10.0 mi SSW 4.6 mph - N/A   Mostly Cloudy
5:53 PM 28.4 °F 23.3 °F 24.8 °F 86% 29.59 in 10.0 mi South 4.6 mph - N/A   Overcast
6:14 PM 28.4 °F 22.2 °F 24.8 °F 86% 29.59 in 10.0 mi South 5.8 mph - N/A   Overcast
6:34 PM 28.4 °F 20.4 °F 24.8 °F 86% 29.57 in 10.0 mi South 8.1 mph - N/A   Overcast
6:53 PM 28.4 °F 21.2 °F 24.8 °F 86% 29.58 in 10.0 mi South 6.9 mph - N/A   Overcast
7:14 PM 28.4 °F 21.2 °F 24.8 °F 86% 29.57 in 10.0 mi South 6.9 mph - N/A   Overcast
7:34 PM 28.4 °F 19.7 °F 24.8 °F 86% 29.56 in 10.0 mi South 9.2 mph - N/A   Overcast
7:53 PM 28.4 °F 23.3 °F 24.8 °F 86% 29.57 in 10.0 mi South 4.6 mph - N/A   Overcast
8:14 PM 28.4 °F 19.7 °F 24.8 °F 86% 29.55 in 7.0 mi South 9.2 mph - N/A   Overcast
8:34 PM 28.4 °F 22.2 °F 24.8 °F 86% 29.55 in 7.0 mi SSE 5.8 mph - N/A   Overcast
8:54 PM 28.4 °F 20.4 °F 24.8 °F 86% 29.54 in 7.0 mi South 8.1 mph - N/A   Overcast
9:14 PM 28.4 °F 21.2 °F 24.8 °F 86% 29.54 in 7.0 mi South 6.9 mph - N/A   Overcast
9:34 PM 28.4 °F 20.4 °F 24.8 °F 86% 29.53 in 7.0 mi South 8.1 mph - N/A   Overcast
9:54 PM 28.4 °F 19.1 °F 24.8 °F 86% 29.53 in 7.0 mi South 10.4 mph - N/A   Overcast
10:13 PM 28.4 °F 19.1 °F 24.8 °F 86% 29.52 in 10.0 mi South 10.4 mph - N/A   Overcast
10:34 PM 28.4 °F 20.4 °F 24.8 °F 86% 29.52 in 10.0 mi South 8.1 mph - N/A   Overcast
10:54 PM 28.4 °F 20.4 °F 24.8 °F 86% 29.51 in 10.0 mi SSE 8.1 mph - N/A   Overcast
11:14 PM 28.4 °F 21.2 °F 24.8 °F 86% 29.51 in 10.0 mi SSE 6.9 mph - N/A   Overcast
11:34 PM 28.4 °F 22.2 °F 24.8 °F 86% 29.52 in 10.0 mi SSE 5.8 mph - N/A   Overcast
11:54 PM 28.4 °F 22.2 °F 24.8 °F 86% 29.52 in 10.0 mi South 5.8 mph - N/A   Scattered Clouds